Louisville Bowman, KY

5:58 AM EST on November 21, 2017 (GMT -0500)
Bowman

Weather History for KLOU - November, 2012

Change the Weather History Date:

Tuesday, November 6, 2012

  Actual Average Record
Temperature  
Mean Temperature 44 °F 52 °F  
Max Temperature 54 °F 61 °F 75 °F (1975)
Min Temperature 33 °F 42 °F 24 °F (1982)
Degree Days  
Heating Degree Days 21 14  
Month to date heating degree days 129 77  
Since 1 July heating degree days 446 353  
Cooling Degree Days 0 0  
Month to date cooling degree days 0 0  
Year to date cooling degree days 1851 1442  
Moisture  
Dew Point 32 °F    
Average Humidity 64    
Maximum Humidity 89    
Minimum Humidity 38    
Precipitation  
Precipitation 0.03 in 0.12 in 1.13 in (1951)
Month to date precipitation 0.23 0.81  
Year to date precipitation 37.89 38.73  
Sea Level Pressure  
Sea Level Pressure 30.00 in    
Wind  
Wind Speed 2 mph (North)    
Max Wind Speed 10 mph    
Max Gust Speed 13 mph    
Visibility 10 miles    
Events Rain    
T = Trace of Precipitation, MM = Missing Value Source: NWS Daily Summary

Daily Weather History Graph

Daily Weather History Graph

Search for Another Location

Airport or City:

Trip Planner

Search our weather history database for the weather conditions in past years. The results will help you decide how hot, cold, wet, or windy it might be!

Date:

Astronomy

Nov. 06, 2012 Rise Set
Actual Time 7:14 AM EST 5:37 PM EST
Civil Twilight 6:46 AM EST 6:05 PM EST
Nautical Twilight 6:15 AM EST 6:36 PM EST
Astronomical Twilight 5:44 AM EST 7:07 PM EST
Moon No Moon Rise 1:07 PM EST (11/6)
Length of Visible Light 11h 18m
Length of Day
10h 22m
Waning Gibbous, 53% of the Moon is Illuminated
Nov 6
Waning Gibbous
Nov 6
Last Quarter
Nov 13
New
Nov 20
First Quarter
Nov 28
Full

Hourly Weather History & Observations

Time (EST) Temp. Windchill Dew Point Humidity Pressure Visibility Wind Dir Wind Speed Gust Speed Precip Events Conditions
12:53 AM 43.0 °F 40.3 °F 30.9 °F 62% 30.07 in 10.0 mi ENE 4.6 mph - N/A   Overcast
1:53 AM 42.1 °F 40.2 °F 30.9 °F 65% 30.06 in 10.0 mi ENE 3.5 mph - N/A   Overcast
2:53 AM 42.1 °F 40.2 °F 30.0 °F 62% 30.07 in 10.0 mi NE 3.5 mph - N/A   Overcast
3:53 AM 41.0 °F - 28.9 °F 62% 30.06 in 10.0 mi Calm Calm - N/A   Scattered Clouds
4:53 AM 37.9 °F - 30.9 °F 76% 30.05 in 10.0 mi Calm Calm - N/A   Clear
5:53 AM 35.1 °F - 30.0 °F 82% 30.06 in 10.0 mi Calm Calm - N/A   Clear
6:53 AM 34.0 °F - 30.0 °F 85% 30.05 in 10.0 mi Calm Calm - N/A   Clear
7:53 AM 35.1 °F - 30.0 °F 82% 30.06 in 10.0 mi Calm Calm - N/A   Clear
8:53 AM 39.0 °F 36.8 °F 30.0 °F 70% 30.06 in 10.0 mi ENE 3.5 mph - N/A   Clear
9:53 AM 43.0 °F - 30.0 °F 60% 30.06 in 10.0 mi Calm Calm - N/A   Clear
10:53 AM 46.9 °F - 32.0 °F 56% 30.05 in 10.0 mi Calm Calm - N/A   Clear
11:53 AM 50.0 °F - 30.9 °F 48% 30.04 in 10.0 mi NW 5.8 mph - N/A   Clear
12:53 PM 52.0 °F - 30.0 °F 43% 29.99 in 10.0 mi Calm Calm - N/A   Clear
1:53 PM 53.1 °F - 30.9 °F 43% 29.96 in 10.0 mi East 3.5 mph - N/A   Clear
2:53 PM 53.1 °F - 28.9 °F 40% 29.96 in 10.0 mi NW 3.5 mph - N/A   Overcast
3:53 PM 53.1 °F - 30.0 °F 41% 29.94 in 10.0 mi Calm Calm - N/A   Overcast
4:53 PM 53.1 °F - 28.9 °F 40% 29.94 in 10.0 mi Calm Calm - N/A   Overcast
5:53 PM 52.0 °F - 30.0 °F 43% 29.94 in 10.0 mi Calm Calm - N/A   Overcast
6:53 PM 51.1 °F - 32.0 °F 48% 29.94 in 10.0 mi Calm Calm - N/A   Overcast
7:53 PM 50.0 °F - 33.1 °F 52% 29.95 in 10.0 mi Calm Calm - N/A   Overcast
8:53 PM 48.9 °F - 35.1 °F 59% 29.95 in 10.0 mi West 8.1 mph - N/A   Overcast
9:53 PM 46.0 °F 41.9 °F 39.0 °F 76% 29.96 in 9.0 mi WSW 8.1 mph - 0.00 in Rain Light Rain
10:53 PM 44.1 °F 41.5 °F 39.9 °F 85% 29.95 in 6.0 mi WSW 4.6 mph - 0.02 in Rain Light Rain
11:53 PM 43.0 °F - 41.0 °F 93% 29.94 in 5.0 mi Calm Calm - 0.01 in Rain Light Rain